Weather History for KNQA - August, 2013

Change the Weather History Date:

Friday, August 2, 2013

  Actual Average Record
Temperature  
Mean Temperature 76 °F -  
Max Temperature 87 °F 89 °F 105 °F (2008)
Min Temperature 66 °F 71 °F 66 °F (2004)
Cooling Degree Days 12    
Growing Degree Days 26 (Base 50)    
Moisture  
Dew Point 69 °F    
Average Humidity 85    
Maximum Humidity 100    
Minimum Humidity 55    
Precipitation  
Precipitation 0.00 in - - ()
Sea Level Pressure  
Sea Level Pressure 30.00 in    
Wind  
Wind Speed 1 mph (SE)    
Max Wind Speed 8 mph    
Max Gust Speed -    
Visibility 8 miles    
Events      
Averages and records for this station are not official NWS values.
T = Trace of Precipitation, MM = Missing Value Source: NWS Daily Summary

Daily Weather History Graph

Daily Weather History Graph

Search for Another Location

Airport or City:

Trip Planner

Search our weather history database for the weather conditions in past years. The results will help you decide how hot, cold, wet, or windy it might be!

Date:

Astronomy

Aug. 02, 2013 Rise Set
Actual Time 6:09 AM CDT 8:01 PM CDT
Civil Twilight 5:41 AM CDT 8:29 PM CDT
Nautical Twilight 5:07 AM CDT 9:03 PM CDT
Astronomical Twilight 4:31 AM CDT 9:39 PM CDT
Moon 2:31 AM CDT (8/2) 4:58 PM CDT (8/2)
Length of Visible Light 14h 48m
Length of Day
13h 52m
Waning Crescent, 15% of the Moon is Illuminated
Aug 2
Waning Crescent
Aug 6
New
Aug 14
First Quarter
Aug 20
Full
Aug 28
Last Quarter

Hourly Weather History & Observations

Time (CDT) Temp. Heat Index Dew Point Humidity Pressure Visibility Wind Dir Wind Speed Gust Speed Precip Events Conditions
12:55 AM 68.0 °F - 68.0 °F 100% 30.02 in 10.0 mi Calm Calm - N/A   Clear
1:55 AM 68.0 °F - 68.0 °F 100% 30.00 in 10.0 mi Calm Calm - N/A   Clear
2:55 AM 68.0 °F - 68.0 °F 100% 29.99 in 10.0 mi Calm Calm - N/A   Clear
3:15 AM 66.2 °F - 66.2 °F 100% 29.98 in 6.0 mi Calm Calm - N/A   Clear
3:35 AM 68.0 °F - 68.0 °F 100% 29.98 in 6.0 mi Calm Calm - N/A   Clear
3:55 AM 66.2 °F - 66.2 °F 100% 30.00 in 2.5 mi Calm Calm - N/A   Clear
4:15 AM 66.2 °F - 66.2 °F 100% 30.00 in 5.0 mi Calm Calm - N/A   Clear
4:35 AM 66.2 °F - 66.2 °F 100% 30.00 in 4.0 mi Calm Calm - N/A   Clear
4:55 AM 66.2 °F - 66.2 °F 100% 30.00 in 3.0 mi Calm Calm - N/A   Clear
5:15 AM 66.2 °F - 66.2 °F 100% 30.00 in 1.0 mi Calm Calm - N/A   Unknown
5:35 AM 66.2 °F - 66.2 °F 100% 30.00 in 7.0 mi Calm Calm - N/A   Scattered Clouds
5:55 AM 66.2 °F - 66.2 °F 100% 30.01 in 7.0 mi Calm Calm - N/A   Mostly Cloudy
6:55 AM 66.2 °F - 66.2 °F 100% 30.02 in 10.0 mi Calm Calm - N/A   Mostly Cloudy
7:55 AM 71.6 °F - 69.8 °F 94% 30.03 in 10.0 mi SE 3.5 mph - N/A   Mostly Cloudy
8:55 AM 75.2 °F - 71.6 °F 89% 30.03 in 10.0 mi Calm Calm - N/A   Scattered Clouds
9:55 AM 80.6 °F 84.6 °F 71.6 °F 74% 30.03 in 10.0 mi Variable 3.5 mph - N/A   Scattered Clouds
10:55 AM 82.4 °F 86.3 °F 69.8 °F 66% 30.03 in 10.0 mi SE 8.1 mph - N/A   Mostly Cloudy
11:55 AM 84.2 °F 88.4 °F 69.8 °F 62% 30.04 in 10.0 mi SSE 5.8 mph - N/A   Mostly Cloudy
12:55 PM 86.0 °F 91.8 °F 71.6 °F 62% 30.03 in 10.0 mi SSE 3.5 mph - N/A   Mostly Cloudy
1:55 PM 87.8 °F 92.6 °F 69.8 °F 55% 30.01 in 10.0 mi Variable 5.8 mph - N/A   Mostly Cloudy
2:55 PM 87.8 °F 93.8 °F 71.6 °F 58% 29.99 in 10.0 mi Variable 5.8 mph - N/A   Mostly Cloudy
3:55 PM 87.8 °F 93.8 °F 71.6 °F 58% 29.99 in 10.0 mi Calm Calm - N/A   Mostly Cloudy
4:55 PM 87.8 °F 93.8 °F 71.6 °F 58% 29.98 in 10.0 mi Variable 3.5 mph - N/A   Mostly Cloudy
5:55 PM 87.8 °F 93.8 °F 71.6 °F 58% 29.96 in 10.0 mi ESE 3.5 mph - N/A   Scattered Clouds
6:55 PM 84.2 °F 90.9 °F 73.4 °F 70% 29.96 in 10.0 mi Calm Calm - N/A   Scattered Clouds
7:55 PM 80.6 °F 85.4 °F 73.4 °F 79% 29.96 in 10.0 mi East 3.5 mph - N/A   Scattered Clouds
8:55 PM 77.0 °F - 71.6 °F 83% 29.98 in 10.0 mi ESE 3.5 mph - N/A   Scattered Clouds
9:55 PM 75.2 °F - 71.6 °F 89% 29.99 in 10.0 mi Calm Calm - N/A   Scattered Clouds
10:55 PM 75.2 °F - 71.6 °F 89% 29.98 in 10.0 mi East 4.6 mph - N/A   Scattered Clouds
11:55 PM 73.4 °F - 71.6 °F 94% 29.97 in 10.0 mi ESE 3.5 mph - N/A   Scattered Clouds